Regional Weather Roundup
Issued by NWS Newport/Morehead, NC

Current Version | Previous Version | Graphics & Text | Print | Product List | Glossary Off
Versions: 1 2 3 4 5 6 7 8 9 10 11 12 13 14 15 16 17 18 19 20 21 22 23 24 25 26 27 28 29 30 31 32 33 34 35 36 37 38 39 40 41 42 43 44 45 46 47 48 49 50

000
ASUS42 KMHX 271813
RWRMHX
WEATHER ROUNDUP FOR EASTERN NORTH CAROLINA
NATIONAL WEATHER SERVICE NEWPORT/MOREHEAD CITY NC
200 PM EDT TUE JUN 27 2017

NOTE: "FAIR" INDICATES FEW OR NO CLOUDS BELOW 12,000 FEET
WITH NO SIGNIFICANT WEATHER AND/OR OBSTRUCTIONS TO VISIBILITY

NCZ015>017-031-032-045>047-102-103-271900-
NORTH COAST

CITY           SKY/WX    TMP DP  RH WIND       PRES   REMARKS
EDENTON        MOSUNNY   84  63  47 CALM      30.02S
ELIZABETH CITY CLOUDY    84  67  56 N8        30.00F
KITTY HAWK     CLOUDY    83  64  51 SE5       29.99F
MANTEO         CLOUDY    82  63  53 CALM      30.01S

$$

NCZ045>047-081-094-103-104-271900-
CENTRAL COAST

CITY           SKY/WX    TMP DP  RH WIND       PRES   REMARKS
FRISCO         NOT AVBL

$$

NCZ095-097-098-100-101-271900-
SOUTHERN COAST

CITY           SKY/WX    TMP DP  RH WIND       PRES   REMARKS
BEAUFORT       PTSUNNY   83  65  54 S9        30.02S
CEDAR ISLAND   NOT AVBL
JACKSONVILLE   NOT AVBL
PINEY ISLAND   CLOUDY   N/A N/A N/A CALM      30.01F
WILMINGTON     MOSUNNY   87  58  37 VRB5      30.02F


$$

NCZ011>013-027>030-043-044-078>080-089-090>093-098-271900-
COASTAL PLAIN

CITY           SKY/WX    TMP DP  RH WIND       PRES   REMARKS
AHOSKIE          N/A     79  57  45 N3        30.02F
CLINTON        MOSUNNY   83  63  50 NW6       30.05S
ELIZABETHTOWN  NOT AVBL
GOLDSBORO      NOT AVBL
GREENVILLE     PTSUNNY   82  59  44 N6        30.05S
HAVELOCK       MOSUNNY   85  59  41 VRB5      30.02F
KENANSVILLE    MOSUNNY   82  59  44 N3        30.04S
KINSTON        MOSUNNY   82  61  47 NW5       30.04S
NEW BERN       MOSUNNY   86  61  42 CALM      30.02F
RICHLANDS      SUNNY     87  57  35 W3        30.02
ROCKY MOUNT    SUNNY     83  56  39 VRB5      30.04F
WASHINGTON     MOSUNNY  N/A N/A N/A N10       30.02S
WHITEVILLE     CLOUDY    85  60  42 CALM      30.02F

$$

AMZ130-135-150-152-154-156-158-170-250-252-270-ANZ085-086-088-633-658-670-271900-
MARINE OBSERVATIONS

STATION/POSITION TIME  TEMP    WIND        PRES    WAVE   SWELL
                       AIR SEA DIR/SP/G            HT/PER HT/PER
                 (UTC) (F)     (DEG/KT/KT) (MB)    (FT/S) (FT/S)
CHESAPEAKE LIGHT NOT AVBL
64 E VA BEACH    1750   74 76  280/  4/  6 1016.8    1/ 8   2/ 8
DUCK             1742   79 71  100/  7/  8 1015.6
2 E DUCK         NOT AVBL
OREGON INLET     1742   78 75   90/  6/  8 1016.1
13E OREGON INLT  1748      78                N/A     1/ 9   2/ 9
HATTERAS CG      1742   81 78  280/  3/  5 1016.3
DIAMOND BUOY     1750   79 81   10/  4/  4 1016.4    2/ 7   2/ 7
CAPE LOOKOUT     1800   80     160/  7/  8 1016.4
BEAUFORT LAB     1742   81 78  190/  8/ 10 1015.9
30 SE NEW RVR IN 1708   81 81   50/  2/  4 1017.1
30 SE NEW RVR IN 1743      83                N/A     2/ 8
27 SE WRIGHTSVLE 1708   81 81  120/  2/  4 1016.4
5 SE WRIGHTSVLE  1708   80 80  170/  4/  6 1016.8
225 S CAPE HAT   1750   77 80  310/ 10/ 12 1017.0    3/ 5   3/ 5
41 SE CHARLESTON 1750   79 81   50/  8/ 10 1016.9    2/ 8   2/ 8

$$



USA.gov is the U.S. government's official web portal to all federal, state and local government web resources and services.